Бустон

Таджикистан     40°13′59″N   69°41′51″E
темп.,
°C
ветер,
м/с
пор.,
м/с
влажн.,
%
обл.,
%
осадки,
мм/ч
давл.,
гПа
погр.,
м
12 августа, пт
пт1223:00+26зюз45241 0.0 1009174
02:00+25з46271 0.0 1008191
05:00+23з45280 0.0 1009155
08:00+26з45240 0.0 1010407
11:00+31з44170 0.0 10081147
14:00+35з55140 0.0 10051855
17:00+36з66130 0.0 10042285
20:00+31зюз47160 0.0 1005217
13 августа, сб
сб1323:00+29зюз36200 0.0 1005183
02:00+26з46220 0.0 1005161
05:00+24з46260 0.0 1007170
08:00+26з45240 0.0 1008399
11:00+32з32170 0.0 1006989
14:00+37зюз43110 0.0 10031802
17:00+38з55110 0.0 10022098
20:00+33зюз46150 0.0 1002142
14 августа, вс
вс1423:00+30зюз34190 0.0 1002108
02:00+29зюз35200 0.0 1002131
05:00+26з45210 0.0 1003109
08:00+28з56220 0.0 1004381
11:00+34з44150 0.0 1003906
14:00+39з54110 0.0 10011760
17:00+40зсз66100 0.0 9992538
20:00+34зсз48130 0.0 1000251
15 августа, пн
пн1523:00+31зюз47170 0.0 1001175
02:00+29зюз46180 0.0 1000167
05:00+28з35190 0.0 1001105
08:00+32зюз45160 0.0 1002358
11:00+38з55110 0.0 10011244
14:00+41зсз65100 0.0 9992624
17:00+41зсз6690 0.0 9993610
20:00+35сз410130 0.0 1000304
16 августа, вт
вт1623:00+32зюз47160 0.0 1001223
02:00+30зюз35180 0.0 1002124
05:00+28з46200 0.0 1003134
08:00+31з58170 0.0 1005491
11:00+36з67130 0.0 10041243
14:00+39зсз68110 0.0 10022850
17:00+39зсз88100 0.0 10013435
20:00+34зсз712130 0.0 1003537